Weather History for Egegik, AK

Change the Weather History Date:

Sunday, January 19, 2014

  Actual Average (PAKN) Record (PAKN)
Temperature  
Mean Temperature 34 °F 16 °F  
Max Temperature 41 °F 23 °F 48 °F (2008)
Min Temperature 26 °F - -33 °F (1947)
Degree Days  
Heating Degree Days 32 49  
Month to date heating degree days 927  
Since 1 July heating degree days 5740  
Cooling Degree Days 0    
Month to date cooling degree days  
Year to date cooling degree days  
Moisture  
Dew Point 29 °F    
Average Humidity 82    
Maximum Humidity 93    
Minimum Humidity 74    
Precipitation  
Precipitation 0.01 in 0.03 in 0.54 in (1986)
Month to date precipitation 0.61  
Year to date precipitation 0.61  
Snow  
Snow 0.00 in 0.40 in 5.40 in (1986)
Month to date snowfall 6.1  
Since 1 July snowfall 25.4  
Snow Depth -    
Sea Level Pressure  
Sea Level Pressure 29.36 in    
Wind  
Wind Speed 11 mph (ENE)    
Max Wind Speed 21 mph    
Max Gust Speed 28 mph    
Visibility 10 miles    
Events      
T = Trace of Precipitation, MM = Missing Value Source: NWS Daily Summary

Daily Weather History Graph

Daily Weather History Graph

Search for Another Location

Airport:

Trip Planner

Search our weather history database for the weather conditions in past years. The results will help you decide how hot, cold, wet, or windy it might be!

Date:

Astronomy

Jan. 19, 2014 Rise Set
Actual Time 9:57 AM AKST 5:23 PM AKST
Civil Twilight 9:10 AM AKST 6:11 PM AKST
Nautical Twilight 8:20 AM AKST 7:01 PM AKST
Astronomical Twilight 7:33 AM AKST 7:48 PM AKST
Moon 10:14 PM AKST (1/19) 10:36 AM AKST (1/19)
Length of Visible Light 9h 00m
Length of Day
7h 25m
Waning Gibbous, 88% of the Moon is Illuminated
Jan 19
Waning Gibbous
Jan 23
Last Quarter
Jan 30
New
Feb 6
First Quarter
Feb 14
Full

Hourly Weather History & Observations

Time (AKST) Temp. Windchill Dew Point Humidity Pressure Visibility Wind Dir Wind Speed Gust Speed Precip Events Conditions
12:16 AM 30.2 °F 21.3 °F 26.6 °F 86% 29.64 in 10.0 mi ESE 10.4 mph - N/A   Clear
12:36 AM 30.2 °F 21.9 °F 26.6 °F 86% 29.64 in 10.0 mi ESE 9.2 mph - N/A   Clear
12:56 AM 30.2 °F 23.4 °F 26.6 °F 86% 29.64 in 10.0 mi ESE 6.9 mph - N/A   Clear
1:16 AM 28.4 °F 22.2 °F 24.8 °F 86% 29.63 in 10.0 mi East 5.8 mph - N/A   Clear
1:36 AM 26.6 °F 20.0 °F 24.8 °F 93% 29.63 in 10.0 mi ENE 5.8 mph - N/A   Clear
1:56 AM 26.6 °F 19.1 °F 24.8 °F 93% 29.62 in 10.0 mi ENE 6.9 mph - N/A   Clear
2:16 AM 26.6 °F 19.1 °F 23.0 °F 86% 29.62 in 10.0 mi ENE 6.9 mph - N/A   Clear
2:36 AM 26.6 °F 19.1 °F 23.0 °F 86% 29.62 in 10.0 mi ENE 6.9 mph - N/A   Clear
2:56 AM 26.6 °F 19.1 °F 23.0 °F 86% 29.61 in 10.0 mi East 6.9 mph - N/A   Clear
3:16 AM 26.6 °F 17.5 °F 23.0 °F 86% 29.61 in 10.0 mi East 9.2 mph - N/A   Clear
3:36 AM 26.6 °F 20.0 °F 21.2 °F 80% 29.60 in 10.0 mi ENE 5.8 mph - N/A   Clear
3:56 AM 26.6 °F 20.0 °F 21.2 °F 80% 29.60 in 10.0 mi ENE 5.8 mph - N/A   Clear
4:16 AM 26.6 °F 18.2 °F 19.4 °F 74% 29.59 in 10.0 mi East 8.1 mph - N/A   Clear
4:36 AM 26.6 °F 18.2 °F 21.2 °F 80% 29.58 in 10.0 mi ENE 8.1 mph - N/A   Clear
4:56 AM 26.6 °F 19.1 °F 21.2 °F 80% 29.56 in 10.0 mi ENE 6.9 mph - N/A   Clear
5:16 AM 26.6 °F 18.2 °F 21.2 °F 80% 29.54 in 10.0 mi NE 8.1 mph - N/A   Clear
5:36 AM 28.4 °F 19.1 °F 21.2 °F 74% 29.53 in 10.0 mi NE 10.4 mph - N/A   Scattered Clouds
5:56 AM 26.6 °F 17.5 °F 21.2 °F 80% 29.52 in 10.0 mi NE 9.2 mph - N/A   Partly Cloudy
6:16 AM 28.4 °F 19.1 °F 21.2 °F 74% 29.49 in 10.0 mi NE 10.4 mph 16.1 mph N/A   Scattered Clouds
6:36 AM 28.4 °F 18.5 °F 21.2 °F 74% 29.47 in 10.0 mi NE 11.5 mph - N/A   Scattered Clouds
6:56 AM 28.4 °F 18.5 °F 21.2 °F 74% 29.46 in 10.0 mi NE 11.5 mph - N/A   Partly Cloudy
7:16 AM 28.4 °F 19.7 °F 23.0 °F 80% 29.45 in 10.0 mi NE 9.2 mph - N/A   Mostly Cloudy
7:36 AM 30.2 °F 22.6 °F 24.8 °F 80% 29.45 in 10.0 mi ENE 8.1 mph - N/A   Overcast
7:56 AM 30.2 °F 22.6 °F 24.8 °F 80% 29.44 in 10.0 mi ENE 8.1 mph - N/A   Overcast
8:16 AM 30.2 °F 22.6 °F 24.8 °F 80% 29.43 in 10.0 mi ENE 8.1 mph - N/A   Overcast
8:36 AM 30.2 °F 22.6 °F 24.8 °F 80% 29.41 in 10.0 mi NE 8.1 mph - N/A   Overcast
8:56 AM 30.2 °F 22.6 °F 26.6 °F 86% 29.39 in 10.0 mi NE 8.1 mph - N/A   Overcast
9:16 AM 32.0 °F 23.6 °F 26.6 °F 80% 29.38 in 10.0 mi NE 10.4 mph - N/A   Overcast
9:36 AM 32.0 °F 23.6 °F 26.6 °F 80% 29.37 in 10.0 mi NNE 10.4 mph - N/A   Overcast
9:56 AM 33.8 °F 24.3 °F 26.6 °F 75% 29.36 in 10.0 mi NE 13.8 mph 20.7 mph N/A   Overcast
10:16 AM 33.8 °F 24.3 °F 28.4 °F 81% 29.34 in 10.0 mi NE 13.8 mph 21.9 mph N/A   Overcast
10:36 AM 35.6 °F 24.8 °F 28.4 °F 75% 29.33 in 10.0 mi NE 19.6 mph 27.6 mph N/A   Overcast
10:56 AM 35.6 °F 26.2 °F 28.4 °F 75% 29.32 in 10.0 mi NE 15.0 mph 23.0 mph N/A   Overcast
11:16 AM 35.6 °F 25.5 °F 30.2 °F 81% 29.31 in 10.0 mi NE 17.3 mph 24.2 mph N/A   Overcast
11:36 AM 35.6 °F 25.2 °F 30.2 °F 81% 29.30 in 10.0 mi ENE 18.4 mph 24.2 mph N/A   Overcast
11:56 AM 35.6 °F 25.2 °F 30.2 °F 81% 29.28 in 10.0 mi NE 18.4 mph 26.5 mph N/A   Mostly Cloudy
12:16 PM 35.6 °F 26.2 °F 30.2 °F 81% 29.28 in 10.0 mi NE 15.0 mph 21.9 mph N/A   Overcast
12:36 PM 35.6 °F 25.5 °F 30.2 °F 81% 29.27 in 10.0 mi ENE 17.3 mph 20.7 mph N/A   Overcast
12:56 PM 35.6 °F 25.5 °F 30.2 °F 81% 29.27 in 10.0 mi ENE 17.3 mph 24.2 mph N/A   Overcast
1:16 PM 35.6 °F 26.2 °F 32.0 °F 87% 29.25 in 10.0 mi ENE 15.0 mph - N/A   Mostly Cloudy
1:36 PM 37.4 °F 28.9 °F 32.0 °F 81% 29.24 in 10.0 mi ENE 13.8 mph 21.9 mph N/A   Overcast
1:56 PM 37.4 °F 29.3 °F 33.8 °F 87% 29.23 in 10.0 mi ENE 12.7 mph 19.6 mph N/A   Overcast
2:16 PM 39.2 °F 32.0 °F 33.8 °F 81% 29.22 in 10.0 mi ENE 11.5 mph - N/A   Overcast
2:36 PM 39.2 °F 30.5 °F 32.0 °F 75% 29.22 in 10.0 mi East 16.1 mph - N/A   Overcast
2:56 PM 39.2 °F 29.8 °F 32.0 °F 75% 29.21 in 10.0 mi East 18.4 mph 24.2 mph N/A   Overcast
3:16 PM 39.2 °F 31.2 °F 32.0 °F 75% 29.21 in 10.0 mi East 13.8 mph 23.0 mph N/A   Mostly Cloudy
3:36 PM 39.2 °F 30.2 °F 32.0 °F 75% 29.19 in 10.0 mi East 17.3 mph 23.0 mph N/A   Partly Cloudy
3:56 PM 39.2 °F 30.8 °F 33.8 °F 81% 29.20 in 10.0 mi East 15.0 mph 21.9 mph N/A   Scattered Clouds
4:16 PM 39.2 °F 31.2 °F 33.8 °F 81% 29.20 in 10.0 mi East 13.8 mph - N/A   Mostly Cloudy
4:36 PM 39.2 °F 30.8 °F 33.8 °F 81% 29.21 in 10.0 mi East 15.0 mph - N/A   Overcast
4:56 PM 37.4 °F 29.3 °F 33.8 °F 87% 29.22 in 10.0 mi East 12.7 mph - N/A   Overcast
5:16 PM 37.4 °F 29.3 °F 33.8 °F 87% 29.22 in 10.0 mi East 12.7 mph - N/A   Overcast
5:36 PM 39.2 °F 29.3 °F 35.6 °F 87% 29.22 in 10.0 mi East 20.7 mph 26.5 mph N/A   Overcast
5:56 PM 39.2 °F 30.5 °F 35.6 °F 87% 29.22 in 10.0 mi East 16.1 mph 26.5 mph N/A   Overcast
6:16 PM 35.6 °F 26.2 °F 33.8 °F 93% 29.23 in 10.0 mi East 15.0 mph 19.6 mph N/A   Overcast
6:36 PM 37.4 °F 28.9 °F 33.8 °F 87% 29.23 in 10.0 mi East 13.8 mph 19.6 mph N/A   Overcast
6:56 PM 37.4 °F 28.5 °F 35.6 °F 93% 29.24 in 10.0 mi East 15.0 mph 26.5 mph N/A   Overcast
7:16 PM 39.2 °F 30.2 °F 35.6 °F 87% 29.23 in 10.0 mi East 17.3 mph 26.5 mph N/A   Overcast
7:36 PM 39.2 °F 29.6 °F 35.6 °F 87% 29.23 in 10.0 mi ESE 19.6 mph 27.6 mph N/A   Overcast
7:56 PM 39.2 °F 29.6 °F 35.6 °F 87% 29.24 in 10.0 mi ESE 19.6 mph 27.6 mph N/A   Mostly Cloudy
8:16 PM 39.2 °F 29.3 °F 35.6 °F 87% 29.24 in 10.0 mi ESE 20.7 mph 25.3 mph 0.01 in   Mostly Cloudy
8:36 PM 39.2 °F 29.6 °F 35.6 °F 87% 29.23 in 10.0 mi ESE 19.6 mph 27.6 mph 0.01 in   Mostly Cloudy
8:56 PM 41.0 °F 32.2 °F 35.6 °F 81% 29.23 in 10.0 mi ESE 18.4 mph 26.5 mph 0.01 in   Overcast
9:16 PM 39.2 °F 32.0 °F 35.6 °F 87% 29.22 in 10.0 mi East 11.5 mph 21.9 mph N/A   Mostly Cloudy
9:36 PM 35.6 °F 29.9 °F 30.2 °F 81% 29.22 in 10.0 mi ENE 6.9 mph - N/A   Partly Cloudy
9:56 PM 39.2 °F 33.0 °F 33.8 °F 81% 29.21 in 10.0 mi East 9.2 mph - N/A   Scattered Clouds
10:16 PM 39.2 °F 33.0 °F 33.8 °F 81% 29.19 in 10.0 mi East 9.2 mph - N/A   Overcast
10:36 PM 37.4 °F 30.8 °F 32.0 °F 81% 29.18 in 10.0 mi ENE 9.2 mph - N/A   Overcast
10:56 PM 37.4 °F 29.8 °F 33.8 °F 87% 29.17 in 10.0 mi East 11.5 mph - N/A   Overcast
11:16 PM 39.2 °F 31.2 °F 33.8 °F 81% 29.17 in 10.0 mi East 13.8 mph - N/A   Overcast
11:36 PM 39.2 °F 30.2 °F 33.8 °F 81% 29.16 in 10.0 mi East 17.3 mph 23.0 mph N/A   Overcast
11:56 PM 39.2 °F 31.6 °F 35.6 °F 87% 29.15 in 10.0 mi East 12.7 mph 19.6 mph N/A   Overcast